Вернуться в каталог

FENGYUN 1C DEB

АктивенSSO
NORAD 31467·DEBRIS·🇨🇳 China

Запущен May 10, 1999 с Taiyuan Satellite Launch Center

Loading…

Ближайшие Пролёты (ближайшие 24 часа)

TLE

СвежийSource: Space-Track

Эпоха: Sep 14, 2026, 09:19 UTC

1 31467U 99025BVF 26257.38873025  .00002047  00000-0  12540-2 0  9991
2 31467  98.5802 114.1092 0152238 310.8050  47.9993 14.01293934 36063

Отслеживайте FENGYUN 1C DEB в реальном времени с AllMySat

Download on the App Store